Stündliche Wetter Abingdon

Heute, 17 Juni, Donnerstag

Zeit Temperatur Niederschläge Wind Luftdruck Luftfeuchtigkeit
00:00 +19°C° 0 mm 1 m/S 751 mmHg 97%
01:00 +18°C° 0.3 mm 1 m/S 750 mmHg 97%
02:00 +18°C° 0.3 mm 1 m/S 750 mmHg 97%
03:00 +17°C° 0.3 mm 2 m/S 750 mmHg 97%
04:00 +17°C° 0.1 mm 2 m/S 750 mmHg 97%
05:00 +17°C° 0.1 mm 2 m/S 751 mmHg 96%
06:00 +17°C° 0 mm 3 m/S 751 mmHg 96%
07:00 +17°C° 0 mm 3 m/S 751 mmHg 94%
08:00 +17°C° 0 mm 4 m/S 751 mmHg 92%
09:00 +18°C° 0 mm 4 m/S 752 mmHg 89%
10:00 +18°C° 0 mm 4 m/S 752 mmHg 87%
11:00 +19°C° 0 mm 4 m/S 752 mmHg 84%
12:00 +20°C° 0 mm 4 m/S 753 mmHg 80%
13:00 +20°C° 0.1 mm 4 m/S 753 mmHg 79%
14:00 +20°C° 0.1 mm 4 m/S 753 mmHg 78%
15:00 +21°C° 0.1 mm 4 m/S 753 mmHg 78%
16:00 +20°C° 0.1 mm 3 m/S 753 mmHg 81%
17:00 +19°C° 0.1 mm 3 m/S 753 mmHg 85%
18:00 +19°C° 0.1 mm 3 m/S 754 mmHg 89%
19:00 +18°C° 0.1 mm 3 m/S 754 mmHg 90%
20:00 +17°C° 0.1 mm 3 m/S 754 mmHg 91%
21:00 +17°C° 0.1 mm 3 m/S 755 mmHg 92%
22:00 +16°C° 0 mm 3 m/S 755 mmHg 90%
23:00 +15°C° 0 mm 4 m/S 755 mmHg 89%

Morgen, 18 Juni, Freitag

Zeit Temperatur Niederschläge Wind Luftdruck Luftfeuchtigkeit
00:00 +15°C° 0 mm 4 m/S 755 mmHg 88%
01:00 +14°C° 0.6 mm 4 m/S 755 mmHg 89%
02:00 +13°C° 0.6 mm 4 m/S 755 mmHg 91%
03:00 +13°C° 0.6 mm 4 m/S 755 mmHg 92%
04:00 +12°C° 1.4 mm 4 m/S 755 mmHg 93%
05:00 +12°C° 1.4 mm 5 m/S 755 mmHg 94%
06:00 +12°C° 1.4 mm 5 m/S 755 mmHg 95%
07:00 +12°C° 0.6 mm 5 m/S 755 mmHg 95%
08:00 +11°C° 0.6 mm 6 m/S 755 mmHg 95%
09:00 +11°C° 0.6 mm 6 m/S 755 mmHg 95%
10:00 +11°C° 0.8 mm 6 m/S 755 mmHg 96%
11:00 +11°C° 0.8 mm 6 m/S 755 mmHg 96%
12:00 +11°C° 0.8 mm 7 m/S 755 mmHg 96%
13:00 +10°C° 2.1 mm 7 m/S 754 mmHg 96%
14:00 +10°C° 2.1 mm 7 m/S 754 mmHg 96%
15:00 +10°C° 2.1 mm 7 m/S 753 mmHg 96%
16:00 +10°C° 1.5 mm 7 m/S 754 mmHg 96%
17:00 +10°C° 1.5 mm 6 m/S 754 mmHg 96%
18:00 +10°C° 1.5 mm 6 m/S 754 mmHg 96%
19:00 +10°C° 0.7 mm 6 m/S 754 mmHg 96%
20:00 +10°C° 0.7 mm 5 m/S 754 mmHg 96%
21:00 +10°C° 0.7 mm 5 m/S 755 mmHg 96%
22:00 +11°C° 0.3 mm 4 m/S 755 mmHg 96%
23:00 +11°C° 0.3 mm 4 m/S 755 mmHg 96%

übermorgen, 19 Juni, Samstag

Zeit Temperatur Niederschläge Wind Luftdruck Luftfeuchtigkeit
00:00 +11°C° 0.3 mm 4 m/S 755 mmHg 96%
01:00 +10°C° 0 mm 3 m/S 755 mmHg 96%
02:00 +10°C° 0 mm 2 m/S 755 mmHg 96%
03:00 +9°C° 0 mm 2 m/S 755 mmHg 96%
04:00 +10°C° 0 mm 2 m/S 756 mmHg 94%
05:00 +12°C° 0 mm 1 m/S 756 mmHg 93%
06:00 +12°C° 0 mm 1 m/S 756 mmHg 91%
07:00 +13°C° 0 mm 1 m/S 756 mmHg 86%
08:00 +15°C° 0 mm 2 m/S 756 mmHg 81%
09:00 +16°C° 0 mm 2 m/S 756 mmHg 76%
10:00 +17°C° 0 mm 2 m/S 756 mmHg 73%
11:00 +18°C° 0 mm 2 m/S 756 mmHg 70%
12:00 +19°C° 0 mm 3 m/S 755 mmHg 67%
13:00 +19°C° 0 mm 3 m/S 755 mmHg 70%
14:00 +18°C° 0 mm 3 m/S 754 mmHg 73%
15:00 +18°C° 0 mm 3 m/S 754 mmHg 76%
16:00 +18°C° 0.1 mm 4 m/S 754 mmHg 78%
17:00 +18°C° 0.1 mm 4 m/S 754 mmHg 80%
18:00 +17°C° 0.1 mm 5 m/S 753 mmHg 83%
19:00 +15°C° 0.3 mm 5 m/S 753 mmHg 87%
20:00 +14°C° 0.3 mm 5 m/S 752 mmHg 90%
21:00 +13°C° 0.3 mm 5 m/S 752 mmHg 94%
22:00 +12°C° 0.8 mm 5 m/S 752 mmHg 95%
23:00 +12°C° 0.8 mm 5 m/S 751 mmHg 97%

20 Juni, Sonntag

Zeit Temperatur Niederschläge Wind Luftdruck Luftfeuchtigkeit
00:00 +12°C° 0.8 mm 5 m/S 751 mmHg 98%
01:00 +10°C° 0.7 mm 5 m/S 750 mmHg 97%
02:00 +10°C° 0.7 mm 5 m/S 750 mmHg 97%
03:00 +10°C° 0.7 mm 5 m/S 749 mmHg 97%
04:00 +11°C° 0.1 mm 4 m/S 749 mmHg 96%
05:00 +11°C° 0.1 mm 4 m/S 749 mmHg 96%
06:00 +11°C° 0.1 mm 3 m/S 749 mmHg 96%
07:00 +11°C° 0 mm 3 m/S 749 mmHg 96%
08:00 +12°C° 0 mm 3 m/S 750 mmHg 95%
09:00 +12°C° 0 mm 3 m/S 750 mmHg 95%
10:00 +12°C° 0 mm 4 m/S 750 mmHg 92%
11:00 +13°C° 0 mm 4 m/S 750 mmHg 89%
12:00 +14°C° 0 mm 4 m/S 750 mmHg 86%
13:00 +14°C° 0 mm 4 m/S 750 mmHg 84%
14:00 +14°C° 0 mm 4 m/S 750 mmHg 82%
15:00 +16°C° 0 mm 3 m/S 750 mmHg 80%
16:00 +14°C° 0 mm 4 m/S 751 mmHg 81%
17:00 +14°C° 0 mm 4 m/S 751 mmHg 82%
18:00 +14°C° 0 mm 4 m/S 751 mmHg 84%
19:00 +13°C° 0 mm 4 m/S 751 mmHg 83%
20:00 +13°C° 0 mm 4 m/S 751 mmHg 83%
21:00 +12°C° 0 mm 4 m/S 752 mmHg 82%
22:00 +11°C° 0 mm 4 m/S 752 mmHg 84%
23:00 +11°C° 0 mm 4 m/S 752 mmHg 86%

21 Juni, Montag

Zeit Temperatur Niederschläge Wind Luftdruck Luftfeuchtigkeit
00:00 +10°C° 0 mm 4 m/S 752 mmHg 88%
01:00 +10°C° 0.2 mm 4 m/S 752 mmHg 90%
02:00 +8°C° 0.2 mm 4 m/S 752 mmHg 92%
03:00 +8°C° 0.2 mm 4 m/S 752 mmHg 94%
04:00 +8°C° 0.7 mm 4 m/S 752 mmHg 95%
05:00 +8°C° 0.7 mm 5 m/S 753 mmHg 95%
06:00 +8°C° 0.7 mm 5 m/S 753 mmHg 96%
07:00 +9°C° 0.3 mm 5 m/S 753 mmHg 95%
08:00 +9°C° 0.3 mm 5 m/S 753 mmHg 94%
09:00 +9°C° 0.3 mm 5 m/S 754 mmHg 93%
10:00 +10°C° 0.2 mm 5 m/S 754 mmHg 91%
11:00 +12°C° 0.2 mm 5 m/S 754 mmHg 89%
12:00 +12°C° 0.2 mm 5 m/S 754 mmHg 86%
13:00 +12°C° 0.1 mm 5 m/S 755 mmHg 86%
14:00 +13°C° 0.1 mm 5 m/S 755 mmHg 85%
15:00 +13°C° 0.1 mm 5 m/S 755 mmHg 84%
16:00 +12°C° 0.1 mm 5 m/S 755 mmHg 85%
17:00 +12°C° 0.1 mm 5 m/S 755 mmHg 85%
18:00 +12°C° 0.1 mm 5 m/S 756 mmHg 85%
19:00 +11°C° 0 mm 4 m/S 756 mmHg 86%
20:00 +10°C° 0 mm 4 m/S 756 mmHg 87%
21:00 +10°C° 0 mm 4 m/S 757 mmHg 88%
22:00 +8°C° 0 mm 4 m/S 757 mmHg 89%
23:00 +8°C° 0 mm 4 m/S 757 mmHg 90%

22 Juni, Dienstag

Zeit Temperatur Niederschläge Wind Luftdruck Luftfeuchtigkeit
00:00 +8°C° 0 mm 3 m/S 757 mmHg 91%
01:00 +7°C° 0 mm 4 m/S 757 mmHg 91%
02:00 +6°C° 0 mm 4 m/S 757 mmHg 91%
03:00 +6°C° 0 mm 4 m/S 758 mmHg 91%
04:00 +7°C° 0 mm 4 m/S 758 mmHg 89%
05:00 +7°C° 0 mm 4 m/S 758 mmHg 87%
06:00 +8°C° 0 mm 4 m/S 758 mmHg 85%
07:00 +9°C° 0 mm 5 m/S 759 mmHg 79%
08:00 +10°C° 0 mm 5 m/S 759 mmHg 73%
09:00 +13°C° 0 mm 5 m/S 759 mmHg 67%
10:00 +13°C° 0 mm 5 m/S 759 mmHg 65%
11:00 +14°C° 0 mm 5 m/S 759 mmHg 63%
12:00 +15°C° 0 mm 4 m/S 759 mmHg 61%
13:00 +15°C° 0 mm 4 m/S 759 mmHg 61%
14:00 +15°C° 0 mm 4 m/S 760 mmHg 62%
15:00 +15°C° 0 mm 4 m/S 760 mmHg 62%
16:00 +16°C° 0 mm 3 m/S 760 mmHg 64%
17:00 +16°C° 0 mm 3 m/S 760 mmHg 67%
18:00 +16°C° 0 mm 2 m/S 760 mmHg 69%
19:00 +14°C° 0 mm 1 m/S 760 mmHg 73%
20:00 +13°C° 0 mm 1 m/S 761 mmHg 77%
21:00 +10°C° 0 mm 0 m/S 761 mmHg 81%
22:00 +10°C° 0 mm 0 m/S 761 mmHg 80%
23:00 +12°C° 0 mm 1 m/S 761 mmHg 78%
Mehr zeigen

Wir brauchen deine Erlaubnis

Meteoprog und unser Service Anbieter werden persönliche Daten aufbewahren, so wie Cookies, Geräte Bezeichnung oder ähnliche Technologien von deinem Gerät und Prozess, so wie Persönliche Daten Inhalte und Werbungen, genauso wie social Media und den Verkehr zu analysieren.

  • Aufbewahrung und/oder Zugang zu deiner Geräte Informationen.

    Cookies, Geräte Bezeichnung oder andere Informationen, können aufbewahrt oder Zugang zu deinem Gerät erhalten, für den Grund, der oben angegeben wird.

  • Personalisierte Werbung und Inhalte, Messungen, Einblick in das Publikum und Produkt Entwicklung.

    Werbungen und Inhalte können personalisiert werden, basierend auf ein Profil. Mehr Daten können besser personalisierte Werbungen und Inhalte hinzufügen. Werbung und Inhalte können gezeigt und gemessen werden. Einblicke über das Publikum, welche die Werbung gesehen haben und den Inhalt, können abgeleitet werden. So wie Daten können genutzt werden, um es zu verbessern oder die Benutzer Erfahrung zu verbessern das System und die Software.

Wenn du “Ich stimme zu” klickst, erlaubst du uns, die Cookies zu benutzen die Geräte Bezeichnung, den Web oder ähnliche Technologien zu benutzen. Deine Settings, können in deinem Gerät bei deinem Browser geändert werden.

Für den bestimmten Zweck, berechtigten Interessen beruhen darauf, mehr als auf den Inhalt. Du kannst mehr darüber in unseren Privaten und Cookie Politik lesen.